Orbital Elements at Epoch 2459200.5 (2020-Dec-17.0) TDB
Reference: JPL 22 (heliocentric ecliptic J2000)
Element | Value | Uncertainty (1-sigma) | Units |
e | .1192466512700752 | 4.0213e-08 | |
a | 3.190828569760885 | 2.6272e-08 | au |
q | 2.810332948040017 | 1.3089e-07 | au |
i | 2.199080768044793 | 4.2934e-06 | deg |
node | 34.43665814130357 | 0.0001089 | deg |
peri | 121.7927382423818 | 0.00011018 | deg |
M | 231.4841521831152 | 1.8875e-05 | deg |
tp | 2459943.703625596136 (2022-Dec-30.20362560) | 0.00011449 | TDB |
period | 2081.870133213696 5.70 | 2.5711e-05 7.039e-08 | d yr |
n | .172921448968713 | 2.1356e-09 | deg/d |
Q | 3.571324191481754 | 2.9404e-08 | au |
|
| | Orbit Determination Parameters
Additional Information
|